Vorticity
6 6 6 6 6 6 6 6 6 6 6 6 5 5 5 4 4 4 4 4 4 4 5 5 5 5 5 5 6 6 6 6 6 6 6 6 6 5 5 5 5 5 5 6 6 7 7 7 7 7 7 7 8 8 9 9 10 11 11 10 10 9 9 9 10 12 14 16 16 15 14 12 11 10 8 7 6 6 6 6 6 6 6 5 4 3 2 -0 1 3 3 2 2 3 3 3 3 3 4 5 7 9 11
6 6 6 6 6 6 6 6 6 6 6 6 6 5 5 5 5 4 4 4 4 5 5 5 5 6 6 6 6 6 6 6 6 6 6 6 6 5 5 5 5 5 6 6 7 7 7 7 7 7 7 7 7 7 8 8 9 10 10 10 10 9 8 8 8 9 11 13 15 16 16 15 14 13 12 10 9 7 6 6 6 6 6 6 5 5 4 2 1 1 4 3 2 2 2 2 2 2 4 5 7 9 12
6 6 6 6 6 6 6 6 6 6 6 6 6 6 5 5 5 5 4 4 4 5 5 5 5 5 5 5 6 6 6 6 6 6 6 6 6 6 5 5 5 5 6 6 7 7 7 6 6 6 6 7 7 7 7 7 8 9 10 10 10 9 8 8 7 7 8 9 11 13 14 14 15 15 15 14 12 11 9 8 7 6 6 6 6 6 5 4 3 2 3 4 3 2 0 -0 -0 1 2 4 7 9 11
6 6 6 6 6 6 6 6 6 6 6 6 6 6 6 5 5 5 5 5 5 5 5 5 5 5 5 5 5 6 6 6 6 6 6 6 6 6 5 5 5 6 6 6 7 7 7 6 6 6 6 6 6 6 6 6 7 8 9 9 10 10 9 9 8 7 6 7 7 9 10 11 13 13 14 15 15 14 12 10 9 8 7 7 6 6 6 6 5 4 2 2 2 2 -1 -2 -3 -2 1 4 6 7 9
6 6 6 6 6 6 6 6 6 6 6 6 6 6 6 6 5 5 5 5 5 5 5 5 5 5 5 5 5 5 6 6 6 6 6 6 6 6 6 5 6 6 6 6 6 7 7 7 7 6 6 6 6 6 6 6 6 6 7 8 9 9 9 9 9 8 7 6 6 6 6 8 9 10 12 13 14 15 14 13 12 10 9 8 7 6 6 6 6 5 4 2 2 1 -0 -2 -3 -3 -2 2 4 6 8
6 6 6 6 6 6 6 6 6 6 6 6 6 6 6 6 6 5 5 5 5 5 5 5 5 5 5 5 5 5 6 6 6 6 6 6 6 6 6 6 6 6 6 6 7 7 7 7 7 7 7 6 6 6 6 6 6 6 7 7 8 8 9 10 10 9 8 7 6 5 5 5 6 7 9 10 12 13 14 14 14 13 11 10 8 7 7 6 6 6 5 4 3 2 2 1 -0 -2 -2 -0 2 5 8
6 6 6 6 6 6 6 6 6 7 7 7 7 6 6 6 6 5 5 5 5 5 5 5 5 5 5 5 5 6 6 6 6 6 6 6 6 6 6 6 6 6 6 7 7 7 7 8 8 8 7 7 6 6 6 6 6 6 6 7 7 8 8 9 10 10 10 8 7 6 5 4 5 5 6 8 9 11 12 13 14 14 14 12 11 9 8 7 6 6 5 5 5 4 4 4 2 1 -2 -1 1 4 8
7 7 7 7 7 7 6 7 7 7 7 7 7 7 6 6 6 6 5 5 5 5 5 5 5 5 5 5 5 6 6 6 6 6 6 6 6 6 6 6 6 6 7 7 7 7 8 8 8 8 8 8 7 7 6 6 6 6 6 6 6 7 8 8 9 10 10 10 8 7 6 5 4 4 5 6 7 8 9 11 13 14 15 14 13 12 10 9 8 6 6 6 5 5 5 5 4 3 1 -1 -1 1 5
7 7 7 7 7 7 7 7 7 7 7 7 7 7 7 6 6 6 5 5 6 6 6 6 6 6 5 6 6 6 6 6 6 6 6 6 6 6 6 6 7 7 7 7 7 8 8 8 8 9 9 9 8 8 7 7 6 6 6 6 6 6 7 7 8 9 10 10 10 9 7 6 6 5 4 5 5 6 7 9 10 12 14 14 14 14 13 12 10 8 7 6 6 5 5 5 5 5 4 1 -1 -1 3
7 8 8 8 7 7 7 7 7 7 7 7 7 7 7 6 6 6 6 6 6 6 6 6 6 6 6 6 6 6 6 6 6 6 6 6 7 7 7 7 7 7 7 7 8 8 8 8 9 9 9 9 9 9 8 8 7 7 6 6 6 6 6 7 7 8 9 10 10 10 9 8 7 6 6 5 5 5 5 6 8 10 12 13 14 15 15 14 12 11 9 8 7 6 5 5 5 6 6 4 1 -0 2
8 8 8 8 8 8 8 7 7 8 8 7 7 7 7 6 6 6 6 6 6 6 6 6 6 6 6 6 6 6 6 6 6 6 6 6 7 7 7 8 8 8 8 8 8 8 8 8 9 9 9 9 10 10 10 9 8 8 7 7 7 6 6 6 7 7 8 9 10 10 10 10 9 8 7 6 6 5 4 4 5 7 8 10 12 14 15 15 14 13 12 10 9 7 6 5 5 5 6 6 4 2 0
8 8 8 8 8 8 8 8 8 8 8 8 7 7 7 6 6 6 6 6 7 7 7 7 7 7 7 7 6 6 6 6 6 6 6 7 7 8 8 8 8 8 8 8 8 8 8 8 9 9 9 9 10 10 10 10 9 9 9 8 8 7 7 7 7 7 7 8 9 10 10 10 10 10 9 8 8 7 5 4 4 4 5 7 9 12 14 15 15 15 14 13 11 9 8 6 6 5 5 6 5 4 1
8 8 8 8 8 8 8 8 8 8 8 8 7 7 7 6 6 6 7 7 7 7 7 7 7 7 7 7 7 6 6 6 6 6 6 7 7 8 8 9 9 8 8 8 8 8 8 8 9 9 9 9 9 10 10 10 10 10 10 9 9 8 8 8 8 7 7 8 8 9 10 10 10 10 10 10 10 9 8 6 5 4 3 4 6 8 10 13 14 15 15 14 13 12 10 8 7 6 5 5 6 5 4
8 8 8 8 8 9 9 9 9 8 8 8 8 7 7 7 7 7 7 7 7 7 7 7 7 7 7 7 7 6 6 6 6 7 7 8 8 8 9 9 9 9 8 8 8 8 8 9 9 9 9 9 9 9 9 9 10 10 10 10 9 9 9 9 9 8 8 8 8 9 9 10 10 10 10 10 10 10 10 9 7 6 4 4 4 4 6 9 12 14 15 15 15 14 13 11 9 7 6 5 5 5 5
8 8 9 9 9 9 9 9 9 9 8 8 8 7 7 7 7 7 7 6 6 7 7 7 7 7 7 7 7 6 6 7 7 7 8 8 8 9 9 9 9 9 9 8 9 9 9 9 9 9 9 9 9 9 9 9 9 9 9 9 9 9 10 9 9 9 9 9 9 9 9 9 10 10 10 10 10 11 11 11 10 9 7 6 4 4 4 6 8 10 13 14 15 15 15 14 12 10 8 6 6 5 5
8 9 9 9 9 9 9 9 9 9 8 8 7 7 7 6 6 6 6 6 6 6 7 7 7 7 7 7 7 7 7 7 8 8 8 9 9 9 9 9 9 9 9 9 9 9 9 9 9 9 9 9 9 9 9 8 9 9 9 9 9 9 9 9 9 9 9 9 9 9 9 10 10 10 10 10 10 11 11 11 11 11 10 9 7 5 4 4 5 7 9 11 13 15 15 15 14 13 11 8 7 6 5
9 9 9 9 9 9 10 9 9 9 8 8 7 7 6 6 6 6 6 6 6 6 7 7 7 7 7 7 7 7 7 8 8 8 9 9 9 9 9 9 9 9 9 10 10 10 10 9 9 9 9 9 9 9 9 8 8 8 8 8 8 8 9 9 9 9 9 9 9 9 9 9 10 10 10 11 11 11 11 11 11 12 12 11 10 8 7 5 5 5 6 8 10 12 14 15 16 15 14 12 9 7 6
9 9 10 10 10 10 10 9 9 8 8 7 7 6 6 6 6 6 6 6 6 6 7 7 7 7 7 7 8 8 8 8 9 9 9 9 9 9 9 9 10 10 10 10 10 10 10 10 10 10 10 9 9 9 9 9 8 8 8 8 8 8 8 8 8 9 9 9 9 9 9 9 9 10 10 10 11 11 11 11 11 12 12 12 12 11 10 8 7 6 5 6 7 9 11 13 14 16 16 15 12 10 8
10 10 10 10 10 10 9 9 8 8 7 7 6 6 6 6 5 5 6 6 6 6 6 7 7 7 8 8 8 8 8 9 9 9 9 9 9 9 10 10 10 10 10 11 10 10 10 10 10 10 10 10 10 10 9 9 9 9 9 9 8 8 8 9 9 9 9 9 9 8 8 8 8 9 9 10 10 11 11 11 11 11 12 12 12 12 12 11 10 8 6 6 6 6 8 9 12 14 16 16 15 13 11
10 10 10 10 10 10 9 8 8 7 7 6 6 6 5 5 5 5 6 6 6 6 7 7 8 8 8 9 9 9 9 9 9 10 10 10 10 10 10 10 10 10 11 10 10 10 10 10 10 10 10 10 10 10 10 9 9 9 9 9 9 9 9 9 9 9 9 9 9 9 9 8 8 8 8 8 9 9 10 10 11 11 11 12 12 12 13 12 12 10 9 8 7 6 6 7 8 10 12 14 16 16 15
10 10 10 10 10 9 9 8 7 7 6 6 6 5 5 5 5 5 6 6 6 7 7 8 8 9 9 9 9 9 9 10 10 10 10 10 10 10 10 10 10 10 10 10 10 10 10 10 10 10 10 10 10 10 10 9 9 9 9 9 9 9 9 9 9 9 9 9 9 9 9 9 8 8 8 8 8 8 8 9 10 10 11 11 12 12 12 12 12 12 11 10 8 7 7 7 7 8 9 11 13 15 16
11 10 10 10 10 9 8 7 7 6 6 6 5 5 5 5 5 6 6 7 7 7 8 8 9 9 10 10 10 10 9 10 10 10 10 10 10 10 10 10 10 10 10 10 10 10 10 10 10 9 9 9 9 9 9 9 9 9 9 9 9 8 8 8 8 8 8 8 8 9 9 9 9 8 8 8 8 7 7 8 8 9 9 10 10 11 12 12 12 12 12 12 10 9 8 8 7 7 7 8 10 12 14
11 10 10 10 9 8 8 7 6 6 5 5 5 5 5 5 6 6 7 7 8 8 8 9 9 10 10 10 10 9 9 10 10 10 10 10 10 10 10 10 10 10 10 10 10 10 10 9 9 9 9 9 9 9 9 9 8 8 8 8 8 8 7 7 7 7 7 7 7 7 8 8 8 8 8 8 7 7 7 7 7 7 8 8 9 10 10 11 11 12 12 12 12 11 10 9 8 7 7 7 8 9 11
10 10 10 9 8 8 7 6 5 5 5 5 5 5 6 6 6 7 7 8 8 9 9 9 9 9 10 10 10 10 10 10 10 10 10 10 10 10 10 10 10 10 10 10 10 9 9 9 9 9 9 8 8 8 8 8 8 7 7 7 7 7 7 6 6 6 6 6 6 6 6 6 6 7 7 7 7 7 7 6 6 6 6 6 7 8 8 9 10 10 11 12 12 12 11 10 9 8 8 7 7 7 8
10 10 10 9 8 7 6 5 5 5 5 5 5 5 6 6 7 7 8 8 9 9 9 9 9 9 9 10 10 10 10 10 11 11 11 10 10 10 10 10 10 10 10 10 9 9 9 9 8 8 8 8 8 7 7 7 7 7 7 6 6 6 6 6 6 6 6 6 6 6 6 6 6 6 6 6 6 6 6 6 6 6 6 6 6 6 7 7 8 9 10 10 11 12 12 11 10 9 9 8 7 7 7
10 9 9 8 7 6 6 5 4 4 5 5 5 6 7 7 7 8 8 9 9 9 9 9 9 9 10 10 10 11 11 11 11 11 11 11 11 10 10 10 10 10 10 9 9 9 8 8 8 8 7 7 7 7 7 7 7 7 7 7 7 7 7 7 6 6 6 6 6 6 6 6 6 6 6 6 6 6 6 6 6 6 6 6 5 5 5 6 6 7 8 9 10 10 11 11 11 11 10 9 8 8 7
10 9 8 7 6 6 5 4 4 4 5 5 6 6 7 8 8 8 9 9 9 9 9 9 9 10 10 10 10 11 11 11 11 11 11 11 11 10 10 10 10 9 9 8 8 8 8 7 7 7 7 7 7 7 7 7 8 8 8 8 8 8 8 8 8 8 8 8 8 8 8 8 8 8 8 8 8 8 8 7 7 7 6 6 6 5 5 5 5 6 6 7 8 9 10 10 11 11 11 10 10 9 8
9 8 8 6 6 5 4 4 4 4 5 6 6 7 7 8 8 9 9 9 9 9 9 10 10 10 10 11 11 11 11 12 12 11 11 10 10 10 10 9 9 8 8 8 8 7 7 7 7 7 8 8 8 8 8 9 9 10 10 10 10 10 10 10 10 10 10 10 10 10 10 10 10 10 10 10 10 10 10 9 9 9 8 8 7 7 6 6 6 5 5 6 6 7 7 9 10 11 11 11 11 10 9
8 8 6 6 5 4 4 4 5 5 6 6 7 8 8 8 9 9 9 9 9 9 10 10 10 10 11 11 11 12 12 12 11 11 10 10 9 9 9 8 8 8 8 7 7 7 8 8 8 8 9 9 10 10 10 10 11 11 11 11 11 11 11 11 11 11 11 12 12 12 12 11 11 11 11 11 11 11 11 11 11 11 10 10 10 9 8 8 7 7 6 6 6 6 6 6 8 9 10 11 11 11 10
8 7 6 5 4 4 4 5 5 6 6 7 8 8 8 8 9 9 9 9 9 9 10 11 11 11 12 11 11 11 11 11 10 10 9 9 8 8 7 7 7 8 8 8 8 8 8 9 9 9 10 10 10 11 11 11 11 11 11 11 11 11 11 11 11 11 11 11 11 12 12 12 11 11 11 11 11 11 11 11 12 12 12 12 11 11 11 10 10 10 9 8 8 7 6 6 6 7 8 9 10 11 12
7 6 5 5 4 4 4 5 6 6 7 7 8 8 8 8 8 8 8 9 9 10 11 12 12 12 12 11 11 11 10 10 9 8 8 8 7 7 7 7 8 8 8 8 9 9 9 10 10 10 10 10 10 11 11 11 10 10 10 10 10 10 10 10 10 10 10 10 10 10 11 11 11 11 11 11 11 11 12 12 12 12 12 12 12 12 12 12 12 12 11 11 10 10 9 8 7 7 6 7 8 10 11
6 6 5 4 4 5 5 6 6 7 7 8 8 8 8 8 8 8 8 9 10 11 12 12 12 12 11 11 10 10 9 8 8 7 7 7 7 7 7 8 8 8 8 8 9 9 9 10 10 10 10 10 10 10 10 11 11 10 10 10 10 10 10 10 10 10 10 10 10 10 10 10 10 10 10 11 11 11 12 12 12 12 12 12 12 12 12 12 12 12 12 12 12 12 11 10 10 9 8 7 7 8 9
6 5 4 4 5 5 6 6 7 7 8 8 8 8 8 8 7 8 8 9 10 12 13 13 13 12 11 10 9 8 7 7 7 7 7 7 7 7 7 7 7 7 7 8 8 8 8 9 9 10 10 11 11 11 11 11 11 11 11 11 11 10 10 10 10 10 10 10 10 10 10 10 10 10 11 11 11 12 12 12 13 13 13 13 13 13 13 13 13 13 12 12 12 12 12 12 12 11 10 9 8 7 7
5 4 4 5 5 6 6 7 7 7 7 8 7 7 7 7 8 8 9 10 12 13 13 13 12 10 9 8 7 7 7 7 7 7 7 7 7 7 6 6 6 6 6 6 6 7 7 8 8 9 10 10 11 11 11 12 12 12 12 12 11 11 11 11 11 11 11 11 11 11 11 11 12 12 12 13 13 13 13 13 13 13 13 13 13 13 13 13 13 13 13 13 13 13 12 12 12 12 12 12 10 9 8
5 5 5 6 6 6 7 7 7 7 7 7 7 7 7 7 8 9 11 12 13 13 12 11 10 8 7 7 7 7 7 7 7 7 6 6 6 6 6 6 6 5 5 5 6 6 6 7 8 8 9 10 10 11 11 12 12 12 12 12 12 12 12 12 12 12 13 13 13 13 13 13 14 14 14 14 14 14 13 13 13 12 12 12 11 11 11 12 12 12 13 13 13 13 13 13 13 13 13 13 12 12 10
5 5 6 6 7 7 7 7 7 7 7 7 7 7 7 8 10 11 12 13 13 12 11 9 8 7 6 6 6 7 7 6 7 7 7 6 6 6 5 5 5 5 5 5 6 6 7 7 8 8 9 10 10 10 10 11 11 11 12 12 12 12 13 13 13 14 14 14 15 15 15 15 15 15 15 15 14 14 13 12 11 10 10 9 8 8 8 9 9 10 10 11 12 12 13 13 13 13 13 13 13 13 12
5 6 6 6 7 7 7 7 7 7 7 7 7 8 9 10 11 13 13 13 12 10 9 7 7 6 6 6 6 7 6 6 6 6 6 6 6 5 5 5 5 5 5 6 6 7 8 9 9 9 9 9 9 10 10 10 10 10 10 10 11 11 12 12 13 13 14 15 15 15 15 15 15 14 14 14 13 13 12 12 10 10 8 8 7 7 7 7 7 8 8 8 9 9 10 11 11 12 12 13 13 13 13
6 6 6 7 7 7 7 6 7 7 7 8 8 9 10 11 13 13 13 12 10 9 7 6 6 6 6 6 7 7 7 7 6 6 5 5 5 5 5 5 5 6 6 7 7 8 9 10 10 10 10 9 9 9 9 9 9 9 9 9 10 10 10 11 12 12 13 13 13 13 12 11 11 11 10 10 10 11 11 10 10 9 8 7 7 6 6 5 5 5 4 4 5 5 6 7 8 9 10 11 12 13 14
6 6 6 6 7 7 6 7 7 8 8 8 9 10 11 13 14 13 12 10 9 7 6 6 6 6 6 7 7 7 7 7 7 6 5 5 5 5 5 6 6 6 7 7 8 9 10 10 10 10 10 10 10 9 9 9 9 9 8 9 9 9 9 10 10 10 11 11 11 10 9 8 7 6 6 6 6 6 7 7 7 7 6 5 4 4 2 1 -0 -1 -1 -1 -0 0 2 4 5 7 8 9 10 12 13
6 6 6 6 6 7 7 7 8 8 8 9 10 11 13 14 14 13 11 9 8 7 6 6 6 6 6 7 7 7 6 7 6 6 6 5 5 5 6 6 6 7 8 8 9 10 10 11 10 10 10 10 10 9 9 9 9 9 8 8 8 8 9 9 9 10 10 10 11 10 10 8 7 6 5 5 4 4 4 4 4 4 3 3 2 0 -1 -3 -4 -5 -5 -4 -3 -2 -0 2 4 6 8 9 10 10 12
6 6 6 6 7 7 7 8 8 8 9 10 11 13 15 14 13 11 9 8 7 6 7 7 7 7 7 7 7 7 6 6 6 6 6 6 6 6 6 7 7 8 9 9 10 11 11 11 11 10 10 10 10 9 10 9 9 8 8 8 8 8 8 8 9 9 10 10 11 12 12 12 12 11 10 9 8 7 6 6 5 4 4 4 2 1 0 -1 -2 -3 -3 -2 -1 0 2 3 5 6 8 9 10 10 10
6 6 7 7 7 8 8 9 9 9 10 11 13 14 15 14 12 10 8 7 7 6 7 7 7 7 7 7 7 7 6 6 6 6 6 6 6 6 7 7 8 9 10 10 11 11 11 11 11 10 10 9 9 9 9 8 8 7 7 7 7 7 7 7 8 8 9 10 10 11 12 13 14 15 15 15 14 14 13 13 12 12 11 10 10 9 8 7 6 6 5 6 6 7 8 8 8 8 9 10 10 10 10
6 6 7 7 8 8 9 9 10 10 11 13 14 15 14 12 10 9 8 7 7 7 7 7 7 7 7 7 7 6 6 6 6 6 6 6 7 7 8 8 9 10 10 11 11 11 11 10 10 10 9 8 8 8 7 7 6 6 6 6 6 6 6 6 7 7 8 9 10 11 12 13 14 15 16 17 18 18 19 19 19 19 19 19 18 18 18 18 17 17 16 16 16 16 15 14 13 12 11 11 11 11 10
6 7 7 7 8 9 9 10 10 11 12 14 14 14 13 11 10 9 8 8 8 7 6 6 6 6 7 7 7 6 6 6 6 6 6 7 8 8 8 9 10 11 11 11 11 11 10 10 9 8 8 7 7 6 6 5 5 5 4 4 5 5 6 6 7 8 9 10 11 12 12 13 13 14 15 16 17 18 18 19 19 19 20 20 20 20 21 21 21 21 21 21 21 21 20 19 17 15 13 13 12 11 10
7 7 7 8 8 9 10 10 11 12 13 14 14 13 11 10 9 9 8 8 8 7 6 6 6 6 6 6 6 6 6 6 6 7 8 8 9 9 10 11 11 11 11 11 11 10 9 8 8 7 6 6 6 5 4 4 4 4 4 5 6 6 7 8 9 10 11 11 12 12 12 12 12 12 12 13 13 13 14 14 14 14 15 15 15 16 16 17 17 18 18 19 20 21 21 20 19 17 15 14 13 12 11
7 7 7 8 9 9 10 11 12 13 14 13 13 12 10 10 9 9 8 8 7 7 6 6 5 5 5 6 6 6 6 6 7 8 8 9 10 10 12 13 13 12 11 10 9 9 8 7 6 6 5 5 4 4 4 4 4 4 6 7 8 9 10 11 12 13 13 13 13 12 11 10 10 10 10 10 10 10 10 11 11 11 12 12 12 13 13 13 13 14 14 15 16 17 18 19 18 17 16 15 14 13 12
7 7 7 8 9 10 10 11 12 13 13 13 12 11 10 10 9 9 8 7 7 6 6 6 5 5 5 5 5 5 6 6 7 8 9 10 11 12 13 14 14 13 11 9 8 7 7 6 6 5 5 4 4 4 5 5 6 7 10 11 12 13 14 14 15 15 14 13 12 11 10 10 9 9 9 10 10 10 11 12 12 13 13 13 14 14 14 14 14 14 14 14 14 15 16 17 17 16 16 15 14 14 13
7 7 7 8 9 10 11 12 12 13 13 12 11 10 10 10 9 8 8 7 6 6 6 6 6 5 5 5 4 4 5 6 8 8 9 10 12 15 16 14 13 12 10 8 7 6 6 5 5 4 5 5 6 7 8 8 10 12 14 14 15 16 16 16 15 14 13 12 12 11 11 11 11 12 12 13 13 14 14 15 16 16 17 17 17 16 16 16 16 16 16 15 15 16 16 16 16 15 14 14 14 14 14
7 7 8 8 9 10 11 12 12 12 12 12 11 10 10 10 9 8 7 6 6 6 5 5 5 5 5 4 5 5 6 7 8 9 9 11 13 16 17 15 13 11 8 7 6 6 5 5 4 5 6 8 9 10 12 13 15 16 17 17 16 16 15 14 13 13 12 12 12 13 13 14 14 15 16 16 16 16 17 17 18 18 18 18 18 18 18 18 17 17 17 17 17 17 17 17 16 15 14 13 13 13 13
7 8 8 9 10 10 11 12 12 12 12 11 11 10 10 9 8 7 6 6 6 5 5 5 5 5 5 5 6 6 7 8 8 9 10 13 14 14 14 14 13 10 8 6 6 5 3 3 5 8 10 12 13 15 16 17 18 18 17 16 14 13 13 13 12 12 12 13 13 14 14 15 15 15 15 15 15 16 16 16 16 16 16 16 17 17 18 18 18 18 18 18 18 17 17 18 17 16 15 13 12 12 12
8 8 9 10 10 10 11 11 12 11 11 11 10 10 9 8 7 6 6 6 5 5 6 5 5 5 5 6 6 7 8 8 9 10 12 14 15 14 13 12 10 8 7 6 5 4 2 3 8 13 15 16 17 17 18 18 17 15 13 12 12 11 12 12 12 12 12 12 12 12 12 12 12 12 12 13 13 13 13 13 13 13 14 14 15 16 16 17 18 19 19 19 18 18 18 18 18 18 17 15 13 11 11
8 9 10 10 10 10 11 11 11 11 11 10 10 9 8 7 7 6 6 6 6 6 6 6 6 6 6 6 7 8 8 9 10 11 13 12 13 13 12 11 9 8 7 5 5 6 4 6 13 19 19 17 17 17 16 15 14 12 10 10 10 11 12 12 12 12 12 12 11 10 9 9 10 10 12 12 13 13 13 12 12 12 12 13 14 14 15 16 17 18 19 19 19 19 19 19 19 20 19 17 15 13 11
9 10 10 10 10 10 11 11 11 11 10 10 10 9 8 7 6 6 6 5 6 6 6 6 6 7 7 8 8 9 10 10 11 12 13 11 10 10 12 11 10 8 9 8 6 5 5 8 15 20 20 16 14 14 13 12 11 10 9 10 11 11 12 12 12 12 12 11 10 10 10 11 12 14 15 15 14 14 13 12 12 12 13 13 13 14 15 16 17 18 18 19 20 20 20 20 20 20 21 20 18 15 12
9 10 10 10 10 10 10 10 10 10 10 9 9 9 8 7 6 6 6 6 6 6 6 7 7 8 8 9 9 10 10 11 11 11 12 11 10 9 9 9 9 8 9 10 10 8 4 10 14 16 14 13 12 11 10 10 10 10 10 11 11 11 11 12 12 11 11 11 12 14 16 18 20 20 20 18 16 14 13 13 13 13 13 13 14 14 15 16 17 18 19 20 20 21 21 21 21 21 22 22 20 18 14
10 10 10 10 10 10 10 10 10 10 10 9 9 8 8 7 7 6 6 6 6 7 7 7 8 9 10 9 10 10 10 11 11 10 10 11 11 11 9 9 10 10 10 9 8 7 9 14 16 15 9 10 10 10 9 9 9 10 11 11 11 11 10 10 10 11 13 16 20 23 26 26 25 22 19 16 14 13 13 13 13 14 14 14 14 15 16 17 18 18 19 20 22 22 23 22 22 21 22 23 23 21 18
10 10 11 10 10 10 10 10 10 10 10 9 8 8 8 8 7 7 7 7 7 7 7 7 8 9 10 10 9 10 10 10 10 10 9 9 10 12 11 10 11 11 11 8 6 6 9 15 17 14 4 9 10 8 7 8 9 11 12 11 11 10 10 9 11 14 19 24 27 28 28 25 22 18 15 14 12 12 12 12 12 13 13 13 14 15 16 17 18 19 20 21 22 24 25 25 24 22 22 24 25 24 22
10 10 10 10 10 10 10 10 10 10 9 9 9 8 8 8 7 7 6 6 7 7 7 8 8 9 10 10 10 9 9 9 9 10 10 9 9 10 11 12 12 11 11 9 8 8 8 12 16 14 2 4 8 10 6 7 9 11 12 12 11 10 9 10 14 19 24 26 25 23 20 18 16 14 14 13 13 12 11 10 10 11 11 12 13 14 16 17 18 19 20 21 22 24 25 26 26 24 23 24 25 27 26
10 10 10 10 9 9 9 9 9 9 9 9 9 8 8 7 7 7 7 7 7 7 7 8 8 8 8 9 9 10 9 9 8 8 10 10 10 10 10 11 10 10 9 8 8 9 11 11 12 13 16 2 2 7 6 7 8 10 11 10 10 9 9 12 17 21 23 20 17 14 13 12 12 12 14 16 16 16 14 12 10 10 10 11 13 14 16 17 18 19 21 22 23 24 24 26 26 26 24 24 26 28 29
9 10 10 10 9 8 8 8 9 9 9 9 9 8 8 7 7 7 8 7 7 7 8 8 8 8 7 7 8 9 9 9 9 8 8 9 10 10 10 10 9 8 6 4 4 6 10 10 10 12 17 8 -2 -6 0 4 7 9 9 9 9 9 9 13 17 19 16 13 10 9 9 8 8 10 14 18 21 21 20 16 12 10 10 11 13 15 16 18 19 20 22 23 24 24 24 25 26 26 26 26 27 29 30
9 10 10 9 9 8 8 8 8 8 9 9 9 9 8 8 8 8 8 8 8 8 8 8 7 7 7 8 8 9 9 9 9 9 8 9 9 10 11 10 9 7 6 5 5 6 7 7 8 8 7 10 6 0 -4 0 4 6 8 8 8 8 10 13 15 14 11 8 7 7 6 5 5 7 12 17 21 23 22 18 14 11 10 11 13 15 17 18 20 21 22 23 24 24 24 24 25 26 27 28 30 30 30
8 9 9 9 8 8 8 8 8 8 8 9 9 9 9 9 8 8 8 8 8 8 8 7 7 7 8 8 9 9 9 9 9 9 10 10 10 10 10 10 8 7 6 6 6 7 8 7 6 4 4 5 8 10 7 5 4 4 4 6 7 8 9 11 11 10 8 6 6 5 5 4 4 5 9 13 17 20 20 18 15 13 11 12 13 15 16 18 19 20 22 22 23 24 23 23 24 25 27 30 32 32 30
Height
3139 3139 3139 3138 3138 3138 3137 3137 3137 3136 3136 3136 3135 3135 3134 3134 3134 3134 3133 3133 3133 3132 3132 3132 3131 3131 3131 3130 3130 3129 3129 3129 3128 3128 3127 3127 3126 3126 3125 3125 3124 3124 3124 3124 3124 3124 3124 3125 3125 3124 3124 3124 3124 3123 3123 3123 3123 3123 3123 3123 3123 3123 3123 3123 3123 3123 3123 3124 3124 3124 3124 3124 3124 3125 3125 3126 3126 3127 3127 3127 3128 3128 3129 3129 3130 3130 3131 3132 3133 3133 3133 3133 3134 3134 3135 3135 3136 3136 3136 3136 3137 3137 3137
3138 3138 3137 3137 3136 3136 3136 3136 3135 3135 3134 3134 3134 3134 3133 3133 3132 3132 3132 3132 3131 3131 3131 3130 3130 3130 3129 3129 3129 3128 3128 3127 3127 3126 3126 3125 3125 3124 3124 3124 3123 3123 3123 3123 3123 3123 3123 3123 3123 3123 3123 3122 3122 3121 3121 3121 3121 3120 3120 3120 3121 3121 3120 3120 3121 3121 3121 3122 3122 3122 3122 3122 3122 3122 3123 3124 3124 3124 3125 3125 3125 3126 3127 3127 3128 3128 3129 3129 3130 3131 3131 3131 3132 3132 3132 3133 3134 3134 3134 3135 3135 3135 3135
3136 3136 3136 3135 3135 3135 3134 3134 3134 3134 3133 3133 3133 3132 3132 3131 3131 3131 3130 3130 3130 3130 3129 3129 3129 3128 3128 3128 3127 3127 3126 3126 3126 3125 3124 3124 3124 3123 3123 3122 3122 3121 3121 3121 3121 3121 3121 3121 3121 3121 3120 3120 3120 3119 3119 3119 3119 3119 3119 3119 3119 3119 3118 3119 3119 3119 3119 3119 3119 3119 3119 3119 3120 3120 3120 3121 3121 3122 3122 3123 3123 3124 3124 3125 3125 3126 3126 3127 3128 3129 3129 3129 3130 3130 3130 3131 3132 3132 3133 3133 3134 3134 3134
3135 3134 3134 3134 3134 3133 3133 3133 3132 3132 3132 3131 3131 3131 3130 3130 3129 3129 3129 3129 3129 3128 3128 3128 3127 3127 3127 3126 3126 3125 3125 3125 3124 3124 3123 3123 3122 3122 3121 3121 3121 3120 3120 3120 3119 3119 3119 3119 3119 3119 3118 3118 3118 3118 3117 3117 3117 3117 3117 3117 3117 3117 3116 3117 3117 3117 3117 3117 3117 3117 3117 3117 3117 3118 3118 3118 3119 3119 3120 3120 3121 3121 3122 3122 3123 3124 3124 3124 3125 3126 3127 3128 3128 3128 3129 3129 3130 3131 3131 3131 3132 3132 3132
3134 3133 3133 3132 3132 3132 3132 3131 3131 3131 3130 3130 3130 3129 3129 3129 3128 3128 3128 3127 3127 3127 3127 3126 3126 3125 3125 3125 3124 3124 3124 3123 3123 3122 3122 3121 3121 3120 3120 3119 3119 3119 3119 3118 3118 3118 3118 3118 3117 3117 3116 3116 3116 3115 3115 3115 3115 3115 3115 3115 3115 3115 3114 3115 3115 3115 3115 3115 3115 3115 3115 3115 3115 3115 3115 3116 3116 3117 3117 3118 3118 3119 3119 3120 3120 3121 3122 3122 3123 3124 3124 3125 3126 3126 3127 3127 3128 3129 3129 3129 3130 3130 3131
3132 3132 3131 3131 3131 3130 3130 3130 3129 3129 3129 3129 3128 3128 3128 3127 3127 3127 3126 3126 3126 3125 3125 3125 3124 3124 3124 3123 3123 3122 3122 3122 3121 3121 3120 3120 3119 3119 3119 3118 3118 3118 3117 3117 3117 3116 3116 3116 3116 3115 3115 3114 3114 3114 3114 3114 3113 3113 3113 3113 3113 3113 3113 3113 3113 3113 3113 3113 3113 3113 3113 3113 3113 3113 3113 3114 3114 3114 3114 3115 3115 3116 3116 3117 3118 3119 3119 3120 3120 3121 3122 3122 3123 3124 3124 3125 3126 3127 3128 3128 3128 3128 3129
3131 3130 3130 3129 3129 3129 3129 3128 3128 3128 3127 3127 3127 3126 3126 3126 3125 3125 3125 3124 3124 3124 3124 3123 3123 3123 3122 3122 3121 3121 3120 3120 3120 3119 3119 3119 3118 3117 3117 3117 3117 3116 3116 3116 3115 3115 3115 3114 3114 3114 3113 3113 3112 3112 3112 3112 3112 3111 3111 3111 3111 3111 3111 3111 3111 3111 3111 3111 3111 3111 3111 3111 3111 3111 3111 3111 3111 3112 3112 3112 3113 3113 3114 3114 3115 3116 3117 3117 3118 3119 3119 3120 3121 3122 3123 3123 3124 3125 3125 3126 3126 3127 3127
3129 3129 3129 3128 3128 3127 3127 3127 3126 3126 3126 3126 3125 3125 3125 3124 3124 3124 3124 3123 3123 3123 3122 3122 3121 3121 3121 3120 3120 3119 3119 3119 3118 3118 3117 3117 3116 3116 3115 3115 3115 3114 3114 3114 3114 3114 3113 3113 3112 3112 3112 3111 3111 3111 3110 3110 3110 3110 3109 3109 3109 3109 3109 3109 3109 3109 3109 3109 3109 3109 3109 3109 3109 3109 3109 3109 3109 3109 3110 3110 3110 3111 3111 3112 3113 3113 3114 3114 3115 3116 3117 3117 3118 3119 3120 3121 3122 3123 3124 3124 3124 3125 3125
3128 3127 3127 3127 3126 3126 3126 3125 3125 3125 3124 3124 3124 3124 3123 3123 3123 3122 3122 3122 3121 3121 3121 3120 3120 3119 3119 3119 3118 3118 3118 3117 3117 3116 3116 3115 3115 3114 3114 3114 3113 3113 3113 3112 3112 3112 3112 3111 3111 3110 3110 3110 3109 3109 3109 3109 3108 3108 3108 3108 3107 3107 3107 3107 3107 3107 3107 3107 3107 3107 3107 3107 3107 3107 3107 3108 3108 3108 3108 3108 3108 3109 3109 3109 3110 3111 3111 3112 3113 3114 3114 3115 3116 3117 3118 3119 3119 3120 3121 3122 3122 3123 3123
3126 3126 3126 3125 3125 3124 3124 3124 3124 3123 3123 3123 3122 3122 3122 3122 3121 3121 3121 3120 3120 3120 3119 3119 3119 3118 3118 3117 3117 3116 3116 3115 3115 3115 3114 3114 3114 3113 3113 3112 3112 3111 3111 3111 3110 3110 3110 3109 3109 3109 3109 3108 3108 3108 3107 3107 3106 3106 3106 3106 3105 3105 3105 3105 3105 3105 3105 3105 3105 3105 3105 3105 3105 3105 3105 3106 3106 3106 3106 3106 3107 3107 3107 3107 3108 3108 3109 3110 3110 3111 3112 3112 3113 3114 3115 3116 3117 3118 3119 3119 3120 3121 3121
3125 3124 3124 3124 3124 3123 3123 3122 3122 3122 3121 3121 3121 3121 3120 3120 3120 3119 3119 3119 3119 3118 3118 3118 3117 3117 3116 3116 3115 3115 3114 3114 3114 3113 3113 3112 3112 3111 3111 3110 3110 3110 3109 3109 3109 3108 3108 3108 3108 3107 3107 3107 3106 3106 3105 3105 3105 3104 3104 3104 3104 3103 3103 3103 3103 3103 3103 3103 3103 3103 3103 3103 3103 3103 3103 3103 3104 3104 3104 3104 3105 3105 3105 3105 3105 3106 3107 3107 3108 3109 3109 3110 3111 3112 3112 3113 3114 3116 3117 3117 3118 3119 3119
3123 3123 3123 3122 3122 3122 3121 3121 3120 3120 3120 3120 3119 3119 3119 3119 3119 3118 3118 3118 3117 3117 3117 3116 3116 3115 3115 3114 3114 3113 3113 3112 3112 3111 3111 3110 3110 3110 3109 3109 3108 3108 3108 3107 3107 3106 3106 3106 3106 3105 3105 3105 3104 3104 3104 3103 3103 3103 3102 3102 3102 3101 3101 3101 3101 3100 3100 3100 3100 3100 3100 3100 3100 3100 3101 3101 3101 3102 3102 3102 3103 3103 3103 3103 3104 3104 3104 3105 3105 3106 3106 3107 3108 3109 3110 3111 3112 3113 3114 3115 3116 3116 3117
3122 3121 3121 3121 3120 3120 3120 3119 3119 3119 3119 3118 3118 3118 3118 3117 3117 3117 3117 3116 3116 3115 3115 3115 3114 3114 3113 3113 3112 3112 3111 3111 3110 3110 3109 3109 3108 3108 3107 3107 3107 3106 3106 3105 3105 3105 3104 3104 3104 3104 3103 3103 3103 3102 3102 3102 3101 3101 3100 3100 3100 3099 3099 3099 3099 3099 3099 3098 3098 3098 3098 3098 3098 3098 3098 3099 3099 3099 3099 3100 3100 3101 3101 3101 3101 3102 3102 3103 3103 3104 3104 3105 3105 3106 3107 3108 3109 3110 3111 3112 3113 3114 3114
3120 3120 3119 3119 3119 3118 3118 3118 3118 3117 3117 3117 3116 3116 3116 3116 3116 3115 3115 3115 3114 3114 3114 3113 3113 3112 3112 3111 3111 3110 3109 3109 3109 3108 3108 3107 3107 3106 3106 3105 3105 3104 3104 3104 3103 3103 3103 3102 3102 3102 3101 3101 3101 3100 3100 3100 3099 3099 3099 3099 3098 3098 3098 3097 3097 3097 3097 3097 3096 3096 3096 3096 3096 3096 3096 3096 3096 3096 3097 3097 3098 3098 3099 3099 3099 3100 3100 3101 3101 3101 3102 3102 3103 3104 3104 3105 3106 3108 3109 3109 3110 3111 3112
3119 3118 3118 3117 3117 3117 3116 3116 3116 3116 3115 3115 3115 3115 3114 3114 3114 3114 3114 3113 3113 3113 3112 3112 3111 3111 3110 3109 3109 3109 3108 3107 3107 3106 3106 3105 3105 3104 3104 3104 3103 3103 3102 3102 3102 3101 3101 3100 3100 3100 3099 3099 3099 3099 3098 3098 3098 3097 3097 3097 3096 3096 3096 3096 3095 3095 3095 3095 3094 3094 3094 3094 3094 3094 3094 3094 3094 3094 3094 3095 3095 3096 3096 3096 3097 3097 3098 3099 3099 3099 3100 3100 3100 3101 3101 3102 3104 3104 3106 3107 3108 3109 3109
3117 3116 3116 3116 3115 3115 3115 3114 3114 3114 3114 3114 3114 3113 3113 3113 3113 3113 3112 3112 3111 3111 3111 3110 3109 3109 3109 3108 3107 3107 3106 3105 3105 3104 3104 3104 3103 3103 3102 3102 3101 3101 3100 3100 3100 3099 3099 3099 3098 3098 3098 3097 3097 3097 3096 3096 3095 3095 3095 3095 3094 3094 3094 3094 3094 3094 3093 3093 3093 3093 3093 3092 3092 3092 3092 3092 3092 3092 3092 3092 3093 3093 3094 3094 3094 3095 3095 3096 3097 3097 3097 3098 3098 3099 3099 3100 3101 3102 3103 3104 3105 3106 3107
3115 3115 3114 3114 3114 3114 3113 3113 3113 3113 3112 3112 3112 3112 3112 3111 3111 3111 3111 3110 3110 3109 3109 3109 3108 3107 3107 3106 3105 3105 3104 3104 3103 3103 3102 3102 3101 3101 3100 3100 3099 3099 3099 3099 3098 3098 3097 3097 3097 3096 3096 3095 3095 3095 3094 3094 3094 3093 3093 3093 3093 3092 3092 3092 3092 3092 3091 3091 3091 3091 3091 3090 3090 3090 3090 3090 3090 3090 3090 3090 3090 3090 3091 3091 3092 3092 3093 3094 3094 3094 3095 3095 3096 3096 3097 3097 3098 3099 3100 3101 3102 3103 3104
3114 3114 3113 3113 3112 3112 3112 3111 3111 3111 3111 3111 3111 3110 3110 3110 3110 3109 3109 3109 3108 3108 3107 3107 3106 3105 3105 3104 3104 3103 3103 3102 3101 3101 3100 3100 3099 3099 3099 3098 3098 3098 3097 3097 3096 3096 3096 3095 3095 3095 3094 3094 3094 3093 3093 3092 3092 3091 3091 3091 3090 3090 3090 3090 3089 3089 3089 3089 3089 3089 3089 3089 3088 3088 3088 3088 3088 3088 3088 3088 3088 3088 3089 3089 3089 3090 3090 3091 3091 3092 3092 3093 3094 3094 3094 3095 3095 3096 3097 3098 3099 3100 3101
3112 3112 3111 3111 3111 3110 3110 3110 3110 3109 3109 3109 3109 3109 3109 3109 3108 3108 3107 3107 3107 3106 3105 3105 3104 3104 3103 3103 3102 3102 3101 3100 3100 3099 3099 3098 3098 3098 3097 3097 3096 3096 3096 3095 3095 3094 3094 3094 3094 3093 3093 3092 3092 3092 3091 3091 3090 3090 3089 3089 3089 3088 3088 3088 3088 3087 3087 3087 3087 3087 3086 3086 3086 3086 3086 3086 3086 3086 3086 3085 3085 3086 3086 3086 3087 3087 3088 3088 3089 3089 3089 3090 3091 3091 3092 3092 3093 3094 3094 3095 3096 3097 3098
3111 3110 3110 3109 3109 3109 3109 3109 3108 3108 3108 3108 3108 3108 3107 3107 3107 3106 3106 3105 3105 3104 3104 3103 3103 3102 3102 3101 3101 3100 3099 3099 3099 3098 3097 3097 3096 3096 3096 3095 3095 3094 3094 3094 3094 3093 3093 3093 3092 3092 3091 3091 3090 3090 3090 3089 3089 3088 3088 3088 3087 3087 3086 3086 3086 3085 3085 3085 3085 3084 3084 3084 3084 3084 3084 3084 3084 3084 3084 3084 3084 3084 3084 3084 3084 3085 3085 3086 3086 3086 3087 3088 3088 3089 3089 3090 3090 3091 3092 3093 3094 3094 3095
3109 3109 3109 3108 3108 3108 3107 3107 3107 3107 3107 3106 3106 3106 3106 3105 3105 3104 3104 3104 3103 3103 3102 3102 3101 3101 3100 3099 3099 3099 3098 3098 3097 3097 3096 3096 3095 3095 3094 3094 3094 3093 3093 3092 3092 3092 3091 3091 3091 3090 3090 3089 3089 3089 3088 3088 3087 3087 3086 3086 3086 3085 3085 3084 3084 3084 3084 3083 3083 3083 3082 3082 3082 3082 3082 3082 3081 3081 3081 3081 3081 3081 3081 3081 3082 3082 3083 3083 3083 3084 3084 3085 3085 3086 3087 3087 3088 3089 3089 3090 3091 3092 3093
3108 3108 3107 3107 3106 3106 3106 3106 3106 3105 3105 3105 3105 3105 3104 3104 3104 3103 3103 3102 3102 3101 3101 3100 3099 3099 3099 3098 3098 3097 3097 3096 3096 3095 3095 3094 3094 3093 3093 3093 3092 3092 3091 3091 3090 3090 3090 3089 3089 3089 3088 3088 3087 3087 3087 3086 3086 3085 3085 3084 3084 3084 3083 3083 3083 3082 3082 3081 3081 3081 3081 3080 3080 3080 3080 3079 3079 3079 3079 3079 3079 3079 3079 3079 3079 3079 3080 3080 3081 3081 3082 3082 3083 3083 3084 3084 3085 3086 3086 3087 3088 3089 3090
3107 3106 3106 3105 3105 3105 3105 3104 3104 3104 3104 3104 3104 3103 3103 3103 3102 3102 3101 3101 3100 3100 3099 3099 3098 3098 3097 3097 3096 3096 3095 3095 3094 3094 3094 3093 3093 3092 3092 3091 3091 3090 3090 3089 3089 3089 3088 3088 3087 3087 3087 3086 3086 3085 3085 3084 3084 3084 3083 3083 3083 3082 3082 3081 3081 3080 3080 3080 3079 3079 3079 3079 3078 3078 3078 3078 3077 3077 3077 3077 3077 3077 3077 3077 3077 3077 3077 3078 3078 3079 3079 3079 3080 3081 3081 3082 3082 3083 3084 3084 3085 3086 3087
3105 3105 3104 3104 3104 3104 3103 3103 3103 3103 3103 3102 3102 3102 3102 3101 3101 3100 3100 3099 3099 3098 3098 3097 3097 3096 3096 3095 3095 3095 3094 3094 3093 3093 3092 3092 3091 3091 3090 3090 3089 3089 3089 3088 3088 3087 3087 3086 3086 3085 3085 3085 3084 3084 3084 3083 3083 3082 3082 3081 3081 3080 3080 3079 3079 3079 3078 3078 3078 3077 3077 3077 3076 3076 3076 3076 3075 3075 3075 3075 3075 3074 3074 3074 3075 3075 3075 3075 3075 3076 3076 3077 3078 3078 3079 3079 3079 3080 3081 3082 3083 3084 3084
3104 3104 3103 3103 3102 3102 3102 3102 3102 3101 3101 3101 3101 3100 3100 3100 3099 3099 3098 3098 3097 3097 3096 3096 3095 3095 3094 3094 3094 3093 3093 3092 3092 3091 3091 3090 3090 3089 3089 3089 3088 3088 3087 3087 3086 3086 3085 3085 3084 3084 3084 3083 3083 3082 3082 3081 3081 3080 3080 3079 3079 3079 3078 3078 3077 3077 3076 3076 3075 3075 3075 3074 3074 3074 3074 3074 3073 3073 3073 3073 3073 3072 3072 3072 3072 3073 3073 3073 3073 3074 3074 3074 3075 3075 3076 3076 3077 3077 3078 3079 3079 3080 3081
3102 3102 3102 3101 3101 3101 3100 3100 3100 3100 3100 3100 3099 3099 3099 3098 3098 3098 3097 3097 3096 3095 3095 3094 3094 3094 3093 3093 3092 3092 3091 3091 3090 3090 3089 3089 3089 3088 3088 3087 3087 3086 3086 3085 3085 3084 3084 3084 3083 3083 3082 3082 3081 3081 3080 3080 3079 3079 3078 3078 3077 3077 3076 3076 3075 3075 3074 3074 3073 3073 3073 3072 3072 3072 3071 3071 3071 3071 3071 3070 3070 3070 3070 3070 3070 3070 3070 3070 3071 3071 3071 3072 3072 3072 3073 3074 3074 3075 3075 3076 3077 3078 3078
3101 3101 3100 3100 3100 3099 3099 3099 3099 3099 3099 3098 3098 3098 3098 3097 3097 3096 3096 3095 3095 3094 3094 3093 3093 3092 3092 3091 3091 3090 3090 3089 3089 3089 3088 3088 3087 3087 3087 3086 3085 3085 3084 3084 3084 3084 3083 3082 3082 3081 3081 3080 3080 3079 3079 3079 3078 3077 3077 3076 3075 3075 3074 3074 3073 3073 3072 3072 3071 3071 3070 3070 3069 3069 3069 3069 3069 3068 3068 3068 3068 3068 3068 3068 3068 3068 3068 3068 3068 3069 3069 3069 3069 3070 3070 3071 3071 3072 3073 3073 3074 3075 3075
3100 3099 3099 3099 3098 3098 3098 3098 3098 3098 3097 3097 3097 3096 3096 3096 3095 3095 3094 3094 3094 3093 3092 3092 3091 3091 3090 3090 3089 3089 3089 3088 3088 3087 3087 3086 3086 3086 3085 3085 3084 3084 3084 3083 3083 3082 3082 3081 3080 3080 3079 3079 3078 3078 3077 3077 3076 3075 3075 3074 3073 3073 3072 3071 3071 3070 3070 3069 3069 3069 3068 3068 3067 3067 3066 3066 3066 3065 3065 3065 3065 3065 3065 3065 3065 3065 3065 3065 3066 3066 3066 3067 3067 3067 3068 3068 3069 3069 3070 3071 3071 3072 3073
3098 3098 3098 3097 3097 3097 3097 3097 3097 3096 3096 3096 3095 3095 3095 3094 3094 3094 3093 3093 3092 3092 3091 3091 3090 3090 3089 3089 3088 3088 3087 3087 3087 3086 3086 3085 3085 3084 3084 3084 3083 3083 3082 3082 3081 3081 3080 3079 3079 3078 3078 3077 3076 3076 3075 3075 3074 3074 3073 3072 3071 3070 3069 3069 3068 3068 3067 3067 3066 3066 3066 3065 3065 3064 3064 3063 3063 3063 3063 3063 3062 3062 3062 3062 3063 3063 3063 3063 3063 3064 3064 3064 3064 3065 3065 3066 3066 3067 3067 3068 3069 3069 3070
3097 3097 3096 3096 3096 3096 3096 3095 3095 3095 3095 3094 3094 3094 3094 3093 3093 3092 3092 3091 3091 3090 3090 3089 3089 3088 3088 3087 3087 3087 3086 3086 3085 3085 3084 3084 3084 3083 3083 3083 3082 3082 3081 3080 3080 3079 3079 3078 3077 3077 3076 3075 3074 3074 3073 3073 3072 3071 3070 3069 3069 3068 3067 3066 3066 3065 3065 3064 3064 3064 3063 3063 3062 3062 3062 3061 3061 3060 3060 3060 3060 3060 3060 3060 3060 3060 3060 3060 3060 3061 3061 3061 3062 3062 3063 3063 3064 3064 3065 3065 3066 3067 3067
3096 3096 3095 3095 3095 3094 3094 3094 3094 3094 3094 3093 3093 3093 3092 3092 3091 3091 3091 3090 3090 3089 3089 3088 3088 3087 3087 3086 3086 3085 3085 3085 3084 3084 3083 3083 3082 3082 3081 3081 3081 3080 3079 3079 3078 3078 3077 3076 3075 3075 3074 3074 3073 3072 3071 3070 3070 3069 3068 3067 3066 3066 3065 3064 3064 3063 3063 3062 3062 3061 3061 3060 3060 3060 3059 3059 3059 3059 3058 3058 3058 3057 3057 3057 3058 3058 3058 3058 3058 3058 3058 3059 3059 3059 3060 3060 3061 3061 3062 3063 3063 3064 3065
3095 3094 3094 3094 3094 3093 3093 3093 3093 3093 3092 3092 3092 3091 3091 3090 3090 3090 3089 3089 3089 3088 3088 3087 3086 3086 3085 3085 3084 3084 3084 3084 3083 3083 3082 3081 3081 3080 3080 3079 3079 3078 3078 3077 3076 3076 3075 3074 3074 3073 3072 3071 3071 3070 3069 3068 3068 3067 3066 3065 3064 3064 3063 3062 3062 3061 3060 3060 3059 3059 3059 3058 3058 3058 3057 3057 3057 3057 3056 3056 3056 3055 3055 3055 3055 3055 3055 3055 3055 3055 3055 3056 3056 3056 3057 3057 3058 3058 3059 3060 3060 3061 3062
3094 3094 3093 3093 3093 3092 3092 3092 3092 3091 3091 3091 3090 3090 3090 3089 3089 3088 3088 3088 3087 3087 3086 3086 3085 3085 3084 3084 3084 3083 3083 3082 3082 3081 3081 3080 3079 3079 3078 3078 3077 3076 3076 3075 3074 3074 3073 3073 3072 3071 3070 3069 3069 3068 3067 3066 3066 3065 3064 3063 3062 3062 3061 3060 3059 3059 3058 3058 3057 3057 3057 3056 3056 3055 3055 3055 3055 3054 3054 3054 3054 3053 3053 3053 3053 3053 3053 3053 3053 3053 3053 3053 3053 3054 3054 3054 3055 3055 3056 3057 3057 3058 3059
3093 3093 3092 3092 3091 3091 3091 3091 3091 3090 3090 3089 3089 3089 3088 3088 3087 3087 3087 3086 3086 3085 3085 3084 3084 3084 3083 3083 3082 3082 3081 3081 3080 3080 3079 3079 3078 3078 3077 3076 3076 3075 3074 3074 3073 3072 3071 3071 3070 3069 3069 3068 3067 3066 3065 3064 3064 3063 3062 3061 3060 3059 3059 3058 3057 3057 3056 3056 3055 3055 3054 3054 3054 3053 3053 3053 3053 3052 3052 3052 3051 3051 3051 3051 3050 3050 3050 3050 3050 3050 3050 3050 3050 3051 3051 3051 3052 3052 3053 3053 3054 3055 3056
3092 3091 3091 3091 3090 3090 3090 3089 3089 3089 3089 3088 3088 3088 3087 3087 3086 3086 3085 3085 3084 3084 3084 3083 3083 3082 3082 3081 3081 3081 3080 3079 3079 3079 3078 3078 3077 3076 3076 3075 3074 3074 3073 3072 3071 3070 3069 3069 3068 3067 3066 3066 3065 3064 3063 3062 3061 3061 3060 3059 3059 3058 3057 3056 3055 3054 3054 3054 3053 3053 3052 3052 3051 3051 3051 3050 3050 3050 3050 3049 3049 3049 3049 3049 3048 3048 3048 3048 3048 3048 3048 3048 3048 3048 3048 3048 3049 3049 3049 3050 3051 3051 3052
3090 3090 3090 3090 3089 3089 3089 3088 3088 3088 3087 3087 3087 3086 3086 3085 3085 3084 3084 3084 3084 3083 3082 3082 3081 3081 3081 3080 3080 3079 3079 3079 3078 3078 3077 3076 3076 3075 3074 3074 3073 3072 3072 3071 3070 3069 3068 3067 3066 3065 3064 3064 3063 3062 3061 3060 3059 3059 3058 3057 3056 3055 3055 3054 3053 3053 3052 3051 3051 3050 3050 3049 3049 3049 3048 3048 3048 3047 3047 3047 3047 3047 3046 3046 3046 3046 3046 3046 3046 3045 3045 3045 3045 3045 3045 3045 3046 3046 3046 3047 3047 3048 3049
3089 3089 3089 3089 3088 3088 3087 3087 3087 3086 3086 3086 3085 3085 3084 3084 3084 3083 3083 3083 3082 3082 3081 3081 3080 3080 3079 3079 3079 3079 3078 3078 3077 3076 3076 3075 3075 3074 3073 3073 3072 3071 3070 3069 3068 3067 3066 3065 3064 3064 3063 3062 3061 3060 3059 3058 3057 3056 3056 3055 3054 3054 3053 3052 3051 3051 3050 3050 3049 3049 3048 3047 3047 3046 3046 3045 3045 3045 3044 3044 3044 3044 3044 3044 3044 3044 3044 3044 3043 3043 3043 3043 3043 3043 3043 3043 3043 3043 3043 3043 3044 3044 3045
3089 3089 3088 3088 3087 3087 3086 3086 3085 3085 3085 3085 3084 3084 3083 3083 3083 3082 3082 3082 3081 3081 3080 3080 3079 3079 3079 3078 3078 3077 3077 3076 3076 3075 3075 3074 3074 3073 3072 3071 3070 3069 3069 3068 3067 3066 3065 3064 3063 3062 3061 3060 3059 3058 3057 3056 3055 3054 3053 3053 3052 3051 3050 3050 3049 3049 3049 3048 3048 3047 3046 3045 3045 3044 3043 3043 3042 3042 3042 3042 3041 3041 3041 3041 3041 3041 3041 3041 3041 3040 3040 3040 3040 3040 3040 3040 3040 3040 3040 3040 3040 3041 3042
3087 3087 3087 3087 3086 3085 3085 3084 3084 3084 3084 3084 3083 3083 3082 3082 3081 3081 3081 3080 3080 3079 3079 3079 3078 3078 3077 3077 3077 3076 3076 3075 3075 3074 3074 3073 3072 3072 3071 3070 3069 3068 3067 3066 3065 3064 3064 3063 3062 3060 3059 3058 3057 3056 3055 3054 3053 3052 3051 3050 3049 3049 3048 3048 3047 3047 3046 3046 3046 3045 3044 3044 3043 3042 3041 3040 3040 3039 3039 3039 3039 3039 3038 3038 3038 3038 3038 3038 3038 3038 3037 3037 3037 3037 3037 3037 3037 3037 3037 3037 3037 3037 3038
3086 3086 3086 3085 3085 3084 3084 3084 3083 3083 3083 3082 3082 3082 3081 3081 3080 3080 3080 3079 3079 3079 3078 3078 3077 3076 3076 3076 3075 3075 3074 3074 3074 3073 3073 3072 3071 3070 3069 3069 3068 3067 3066 3065 3064 3063 3062 3061 3060 3059 3058 3057 3056 3054 3054 3052 3051 3050 3049 3048 3047 3047 3046 3045 3045 3044 3044 3044 3044 3043 3043 3042 3041 3040 3039 3038 3038 3037 3037 3036 3036 3036 3035 3035 3035 3035 3035 3035 3034 3034 3034 3034 3034 3034 3034 3034 3034 3034 3034 3034 3034 3034 3034
3085 3085 3085 3084 3084 3083 3083 3082 3082 3082 3082 3081 3081 3080 3080 3080 3079 3079 3079 3078 3078 3077 3077 3076 3076 3075 3075 3074 3074 3074 3074 3073 3073 3072 3071 3071 3070 3069 3068 3068 3066 3065 3064 3064 3063 3062 3061 3060 3059 3058 3057 3055 3054 3053 3052 3051 3049 3049 3047 3046 3045 3045 3044 3043 3043 3042 3041 3041 3040 3040 3040 3039 3038 3038 3037 3036 3035 3035 3034 3034 3033 3033 3033 3032 3032 3032 3031 3031 3031 3031 3030 3030 3030 3030 3029 3030 3030 3030 3030 3030 3030 3030 3031
3084 3084 3084 3083 3083 3082 3082 3081 3081 3081 3080 3080 3080 3079 3079 3079 3079 3078 3078 3077 3077 3076 3076 3075 3075 3074 3074 3074 3073 3073 3073 3072 3071 3071 3070 3069 3069 3068 3067 3066 3065 3064 3063 3062 3061 3060 3059 3059 3058 3056 3055 3054 3053 3052 3050 3049 3048 3047 3046 3044 3044 3043 3042 3041 3040 3039 3039 3038 3038 3037 3037 3036 3035 3035 3034 3034 3033 3032 3032 3031 3030 3030 3029 3029 3029 3028 3028 3028 3027 3027 3026 3026 3026 3025 3025 3025 3025 3026 3026 3026 3026 3027 3027
3083 3083 3082 3082 3082 3081 3081 3080 3080 3080 3079 3079 3079 3079 3078 3078 3077 3077 3077 3076 3076 3075 3075 3074 3074 3074 3073 3073 3072 3072 3072 3071 3070 3070 3069 3069 3068 3067 3066 3065 3064 3063 3062 3061 3060 3059 3058 3057 3056 3055 3054 3053 3051 3050 3049 3047 3046 3045 3044 3043 3042 3041 3040 3039 3038 3037 3036 3035 3034 3034 3033 3033 3032 3032 3031 3030 3030 3029 3029 3028 3028 3027 3026 3025 3025 3024 3024 3024 3023 3023 3022 3022 3022 3021 3021 3021 3021 3021 3022 3022 3023 3023 3023
3082 3081 3081 3081 3080 3080 3080 3079 3079 3079 3078 3078 3078 3078 3077 3077 3076 3076 3076 3075 3075 3074 3074 3073 3073 3073 3072 3072 3071 3071 3070 3070 3069 3069 3068 3068 3067 3066 3065 3064 3063 3062 3060 3059 3059 3058 3057 3056 3055 3054 3052 3051 3050 3049 3047 3046 3044 3043 3042 3041 3040 3039 3038 3037 3035 3034 3034 3033 3032 3031 3030 3029 3029 3028 3028 3027 3027 3026 3026 3025 3024 3024 3023 3022 3021 3021 3020 3020 3019 3019 3018 3018 3017 3017 3017 3017 3017 3017 3017 3018 3019 3019 3019
3080 3080 3080 3080 3079 3079 3079 3078 3078 3078 3077 3077 3077 3077 3076 3076 3075 3075 3075 3074 3074 3073 3073 3072 3072 3071 3071 3071 3070 3070 3069 3069 3069 3068 3067 3067 3066 3065 3064 3063 3062 3061 3060 3059 3058 3057 3056 3055 3054 3052 3051 3050 3049 3047 3046 3045 3043 3042 3041 3040 3039 3038 3037 3035 3034 3033 3032 3030 3029 3028 3027 3026 3025 3025 3024 3024 3024 3023 3023 3022 3021 3021 3020 3019 3018 3018 3017 3016 3015 3015 3014 3014 3014 3013 3013 3013 3013 3013 3013 3014 3014 3015 3016
3079 3079 3079 3079 3078 3078 3077 3077 3077 3077 3076 3076 3076 3075 3075 3075 3074 3074 3074 3073 3073 3072 3072 3071 3070 3070 3070 3069 3069 3069 3068 3068 3068 3067 3066 3066 3065 3064 3063 3062 3061 3060 3059 3058 3057 3056 3055 3054 3053 3052 3050 3049 3048 3046 3045 3044 3043 3041 3040 3039 3038 3037 3036 3034 3033 3032 3030 3029 3028 3026 3025 3024 3023 3022 3021 3020 3020 3019 3019 3019 3018 3018 3017 3016 3015 3014 3013 3013 3012 3011 3011 3010 3010 3009 3009 3009 3009 3009 3009 3009 3010 3011 3012
3079 3078 3078 3078 3077 3077 3076 3076 3076 3075 3075 3075 3075 3074 3074 3074 3074 3073 3073 3072 3072 3071 3071 3070 3069 3069 3069 3068 3068 3067 3067 3067 3066 3066 3065 3065 3064 3063 3062 3062 3060 3059 3059 3058 3057 3056 3055 3054 3052 3051 3050 3048 3047 3045 3044 3043 3042 3040 3039 3038 3037 3036 3034 3033 3032 3031 3029 3028 3026 3025 3024 3022 3021 3019 3018 3018 3017 3016 3016 3015 3015 3014 3014 3013 3012 3011 3010 3009 3009 3008 3007 3007 3006 3006 3005 3005 3005 3005 3004 3005 3005 3006 3008
3077 3077 3077 3077 3076 3076 3075 3075 3075 3074 3074 3074 3074 3074 3073 3073 3073 3072 3072 3071 3071 3070 3070 3069 3069 3068 3068 3067 3066 3066 3066 3065 3065 3064 3064 3064 3063 3062 3061 3061 3060 3059 3058 3057 3057 3056 3054 3053 3052 3050 3049 3048 3046 3044 3043 3042 3041 3039 3039 3037 3036 3035 3034 3032 3031 3029 3028 3026 3025 3023 3022 3020 3019 3018 3016 3015 3014 3014 3013 3012 3011 3011 3010 3009 3009 3008 3007 3006 3005 3004 3004 3003 3003 3002 3002 3002 3001 3001 3001 3001 3001 3002 3003
3076 3076 3076 3076 3075 3075 3075 3074 3074 3074 3073 3073 3073 3073 3072 3072 3072 3071 3071 3070 3070 3069 3069 3068 3068 3067 3067 3066 3065 3065 3064 3064 3064 3064 3063 3063 3062 3062 3061 3060 3059 3059 3058 3057 3056 3055 3054 3053 3051 3049 3048 3046 3045 3044 3042 3041 3039 3038 3037 3036 3035 3034 3033 3031 3030 3028 3027 3025 3023 3022 3020 3019 3017 3016 3014 3013 3012 3011 3010 3009 3008 3008 3007 3006 3005 3004 3004 3003 3002 3001 3000 2999 2999 2999 2998 2998 2997 2997 2997 2997 2997 2998 2999
3075 3075 3075 3075 3074 3074 3074 3074 3073 3073 3072 3072 3072 3072 3071 3071 3071 3070 3070 3069 3069 3068 3068 3067 3067 3067 3066 3065 3065 3064 3064 3063 3063 3062 3062 3061 3061 3061 3060 3060 3059 3059 3058 3057 3056 3055 3054 3053 3051 3049 3047 3045 3044 3043 3041 3040 3039 3037 3036 3035 3034 3033 3032 3030 3029 3027 3025 3024 3022 3020 3018 3017 3015 3014 3012 3011 3009 3008 3007 3006 3005 3004 3004 3003 3002 3001 3000 2999 2999 2998 2997 2996 2995 2994 2994 2994 2994 2993 2993 2993 2993 2994 2994
3074 3074 3074 3074 3074 3073 3073 3073 3072 3072 3071 3071 3071 3071 3070 3070 3070 3069 3069 3068 3068 3068 3067 3067 3066 3066 3065 3065 3064 3064 3063 3062 3062 3061 3061 3060 3059 3059 3059 3059 3059 3058 3057 3056 3055 3054 3054 3053 3050 3048 3046 3044 3043 3042 3040 3039 3038 3037 3035 3034 3033 3032 3030 3029 3027 3025 3024 3022 3020 3019 3017 3015 3014 3012 3010 3009 3008 3006 3004 3003 3002 3001 3000 2999 2999 2998 2997 2996 2995 2994 2993 2992 2991 2990 2989 2989 2989 2989 2989 2989 2989 2989 2990
3074 3073 3073 3073 3073 3072 3072 3071 3071 3071 3071 3070 3070 3070 3070 3069 3069 3068 3068 3067 3067 3067 3066 3066 3065 3065 3064 3064 3063 3063 3062 3061 3061 3060 3059 3059 3059 3058 3057 3057 3057 3057 3056 3056 3054 3054 3053 3052 3049 3047 3045 3044 3042 3041 3040 3039 3037 3036 3034 3033 3032 3030 3029 3027 3026 3024 3023 3021 3019 3018 3016 3014 3012 3011 3009 3007 3006 3004 3003 3001 2999 2998 2997 2996 2995 2994 2993 2992 2991 2990 2989 2988 2987 2986 2985 2985 2985 2985 2985 2984 2985 2985 2986
3073 3072 3072 3072 3072 3071 3071 3070 3070 3070 3070 3069 3069 3069 3069 3068 3068 3067 3067 3067 3066 3066 3066 3065 3065 3064 3064 3063 3063 3062 3061 3060 3060 3059 3058 3058 3057 3057 3056 3056 3055 3055 3054 3054 3054 3053 3052 3051 3049 3047 3045 3043 3042 3040 3039 3038 3036 3035 3034 3032 3030 3029 3027 3026 3024 3023 3021 3020 3018 3016 3014 3013 3011 3009 3007 3006 3004 3003 3001 2999 2998 2996 2994 2993 2991 2990 2989 2988 2987 2986 2985 2984 2984 2983 2982 2981 2980 2980 2980 2980 2981 2981 2981
3072 3071 3071 3071 3071 3070 3070 3070 3069 3069 3069 3069 3069 3068 3068 3067 3067 3066 3066 3066 3066 3065 3065 3064 3064 3064 3064 3063 3062 3061 3060 3059 3059 3058 3057 3056 3056 3055 3055 3054 3054 3053 3052 3052 3052 3051 3051 3050 3049 3047 3044 3043 3041 3040 3038 3037 3035 3034 3032 3031 3029 3028 3026 3024 3023 3022 3020 3019 3017 3015 3013 3011 3009 3007 3006 3004 3003 3001 2999 2997 2995 2994 2992 2990 2989 2987 2985 2984 2983 2982 2981 2980 2979 2979 2978 2977 2976 2976 2976 2976 2976 2976 2977
3071 3070 3070 3070 3070 3069 3069 3069 3069 3068 3068 3068 3068 3067 3067 3066 3066 3066 3065 3065 3065 3064 3064 3064 3064 3063 3063 3063 3062 3061 3060 3059 3058 3057 3056 3055 3054 3054 3054 3053 3052 3052 3051 3051 3050 3049 3049 3049 3048 3047 3044 3042 3041 3039 3038 3036 3035 3033 3032 3030 3029 3027 3025 3024 3023 3021 3019 3017 3015 3013 3011 3009 3008 3006 3004 3003 3001 2999 2997 2995 2993 2991 2989 2987 2986 2984 2982 2981 2979 2978 2977 2976 2975 2974 2974 2973 2972 2972 2971 2971 2971 2972 2972
3070 3069 3069 3069 3069 3069 3068 3068 3068 3067 3067 3067 3067 3066 3066 3066 3065 3065 3065 3064 3064 3064 3064 3063 3063 3063 3063 3062 3061 3060 3059 3058 3057 3056 3055 3054 3054 3053 3052 3052 3051 3050 3049 3049 3049 3049 3048 3047 3047 3046 3044 3042 3040 3039 3038 3036 3034 3033 3031 3030 3028 3026 3025 3024 3022 3020 3018 3016 3014 3012 3010 3008 3006 3005 3003 3001 3000 2998 2996 2994 2991 2989 2987 2985 2983 2981 2979 2977 2976 2974 2973 2972 2971 2970 2970 2969 2969 2968 2967 2967 2967 2967 2968
3069 3069 3068 3068 3068 3068 3067 3067 3067 3067 3066 3066 3066 3066 3065 3065 3064 3064 3064 3064 3064 3063 3063 3063 3063 3062 3062 3061 3060 3059 3058 3057 3056 3055 3054 3054 3053 3052 3051 3050 3050 3049 3048 3048 3047 3047 3046 3046 3045 3044 3044 3042 3040 3039 3037 3036 3035 3033 3031 3030 3028 3026 3024 3023 3021 3019 3017 3015 3013 3011 3009 3007 3006 3004 3002 3000 2999 2996 2994 2992 2989 2987 2984 2982 2980 2978 2976 2974 2972 2970 2969 2968 2967 2966 2965 2965 2964 2964 2963 2963 2963 2963 2964
3068 3068 3067 3067 3067 3067 3067 3066 3066 3066 3066 3065 3065 3065 3064 3064 3064 3064 3064 3063 3063 3063 3063 3062 3062 3062 3061 3060 3059 3058 3058 3057 3056 3055 3054 3053 3052 3051 3050 3050 3049 3049 3048 3047 3047 3046 3045 3045 3044 3043 3043 3042 3041 3039 3037 3036 3035 3033 3032 3030 3028 3026 3024 3023 3021 3019 3016 3014 3012 3010 3009 3007 3005 3003 3001 2999 2997 2994 2992 2989 2987 2985 2982 2980 2978 2975 2973 2971 2969 2967 2965 2964 2963 2962 2961 2961 2960 2960 2959 2959 2959 2959 2959
3067 3067 3066 3066 3066 3066 3066 3065 3065 3065 3065 3064 3064 3064 3064 3064 3063 3063 3063 3063 3062 3062 3062 3062 3061 3061 3060 3059 3058 3058 3057 3056 3055 3054 3053 3052 3051 3051 3050 3049 3049 3048 3048 3047 3046 3046 3045 3044 3043 3042 3041 3041 3040 3040 3038 3036 3034 3033 3031 3029 3027 3025 3024 3022 3020 3018 3015 3014 3012 3010 3008 3006 3004 3002 2999 2997 2994 2992 2989 2987 2985 2983 2980 2978 2975 2973 2970 2968 2966 2964 2962 2961 2959 2958 2957 2957 2956 2956 2955 2955 2955 2955 2956
3066 3066 3066 3066 3065 3065 3065 3065 3064 3064 3064 3064 3064 3063 3063 3063 3063 3063 3062 3062 3062 3062 3062 3061 3061 3060 3059 3059 3058 3057 3056 3055 3054 3054 3053 3052 3051 3050 3049 3049 3048 3048 3047 3046 3046 3045 3045 3044 3043 3042 3040 3039 3039 3038 3038 3036 3034 3032 3030 3028 3026 3024 3023 3021 3019 3017 3014 3013 3011 3009 3006 3004 3002 3000 2998 2995 2992 2990 2987 2985 2982 2980 2978 2975 2973 2970 2968 2965 2963 2961 2959 2957 2956 2955 2954 2953 2952 2952 2952 2952 2952 2952 2952
3065 3065 3065 3065 3065 3064 3064 3064 3064 3064 3064 3063 3063 3063 3063 3062 3062 3062 3062 3062 3061 3061 3061 3061 3060 3059 3058 3058 3057 3056 3055 3054 3054 3053 3052 3051 3051 3050 3049 3048 3048 3047 3047 3046 3045 3045 3044 3043 3042 3041 3040 3039 3038 3036 3035 3034 3034 3032 3030 3028 3026 3024 3022 3020 3018 3016 3014 3012 3009 3007 3005 3003 3000 2998 2996 2993 2990 2988 2985 2983 2980 2978 2975 2973 2970 2968 2965 2963 2960 2958 2956 2954 2953 2952 2950 2949 2949 2949 2948 2948 2948 2949 2949